Time,TemperatureF,DewpointF,PressureIn,WindDirection,WindDirectionDegrees,WindSpeedMPH,WindSpeedGustMPH,Humidity,HourlyPrecipIn,Conditions,Clouds,dailyrainin,SoftwareType,DateUTC
2013-01-08 00:04:00,39.4,29.7,30.02,South,175,3.0,14.0,68,0.00,,,0.00,meteohub,2013-01-08 06:04:00,
2013-01-08 00:09:00,39.4,29.7,30.03,SSW,207,4.0,14.0,68,0.00,,,0.00,meteohub,2013-01-08 06:09:00,
2013-01-08 00:14:00,39.2,29.5,30.02,SSE,154,3.0,11.0,68,0.00,,,0.00,meteohub,2013-01-08 06:14:00,
2013-01-08 00:19:00,39.2,29.5,30.02,SW,232,7.0,11.0,68,0.00,,,0.00,meteohub,2013-01-08 06:19:00,
2013-01-08 00:24:00,39.2,29.5,30.02,South,175,6.0,11.0,68,0.00,,,0.00,meteohub,2013-01-08 06:24:00,
2013-01-08 00:29:00,39.4,29.7,30.02,SSE,163,5.0,11.0,68,0.00,,,0.00,meteohub,2013-01-08 06:29:00,
2013-01-08 00:34:00,39.4,29.7,30.02,SSE,155,5.0,11.0,68,0.00,,,0.00,meteohub,2013-01-08 06:34:00,
2013-01-08 00:39:00,39.4,29.7,30.02,South,169,12.0,15.0,68,0.00,,,0.00,meteohub,2013-01-08 06:39:00,
2013-01-08 00:44:00,39.2,29.5,30.02,SSW,200,6.0,15.0,68,0.00,,,0.00,meteohub,2013-01-08 06:44:00,
2013-01-08 00:49:00,39.2,29.5,30.02,SSW,202,1.0,14.0,68,0.00,,,0.00,meteohub,2013-01-08 06:49:00,
2013-01-08 00:54:00,39.0,29.3,30.02,South,185,6.0,15.0,68,0.00,,,0.00,meteohub,2013-01-08 06:54:00,
2013-01-08 00:59:00,39.0,29.7,30.02,SSE,154,4.0,15.0,69,0.00,,,0.00,meteohub,2013-01-08 06:59:00,
2013-01-08 01:04:00,38.8,29.5,30.02,SSE,157,4.0,17.0,69,0.00,,,0.00,meteohub,2013-01-08 07:04:00,
2013-01-08 01:09:00,38.8,29.5,30.02,WSW,241,4.0,17.0,69,0.00,,,0.00,meteohub,2013-01-08 07:09:00,
2013-01-08 01:14:00,38.8,29.5,30.01,SSW,192,11.0,14.0,69,0.00,,,0.00,meteohub,2013-01-08 07:14:00,
2013-01-08 01:19:00,38.8,29.5,30.01,SSW,213,2.0,14.0,69,0.00,,,0.00,meteohub,2013-01-08 07:19:00,
2013-01-08 01:24:00,39.0,29.7,30.01,SSE,151,4.0,16.0,69,0.00,,,0.00,meteohub,2013-01-08 07:24:00,
2013-01-08 01:29:00,39.0,29.7,30.01,ESE,112,5.0,16.0,69,0.00,,,0.00,meteohub,2013-01-08 07:29:00,
2013-01-08 01:34:00,39.0,29.7,30.02,SE,136,5.0,16.0,69,0.00,,,0.00,meteohub,2013-01-08 07:34:00,
2013-01-08 01:39:00,39.0,29.7,30.01,SSW,195,6.0,16.0,69,0.00,,,0.00,meteohub,2013-01-08 07:39:00,
2013-01-08 01:44:00,39.0,29.7,30.02,South,184,5.0,15.0,69,0.00,,,0.00,meteohub,2013-01-08 07:44:00,
2013-01-08 01:49:00,39.0,30.0,30.01,South,185,7.0,15.0,70,0.00,,,0.00,meteohub,2013-01-08 07:49:00,
2013-01-08 01:54:00,39.0,30.0,30.02,WNW,300,2.0,18.0,70,0.00,,,0.00,meteohub,2013-01-08 07:54:00,
2013-01-08 01:59:00,39.0,30.0,30.02,South,181,4.0,18.0,70,0.00,,,0.00,meteohub,2013-01-08 07:59:00,
2013-01-08 02:04:00,39.0,30.0,30.02,South,175,5.0,16.0,70,0.00,,,0.00,meteohub,2013-01-08 08:04:00,
2013-01-08 02:09:00,39.0,30.0,30.02,SSE,153,6.0,16.0,70,0.00,,,0.00,meteohub,2013-01-08 08:09:00,
2013-01-08 02:14:00,39.0,30.0,30.02,SW,215,6.0,13.0,70,0.00,,,0.00,meteohub,2013-01-08 08:14:00,
2013-01-08 02:19:00,39.0,30.0,30.02,SSW,200,3.0,13.0,70,0.00,,,0.00,meteohub,2013-01-08 08:19:00,
2013-01-08 02:24:00,39.0,30.0,30.03,South,177,7.0,14.0,70,0.00,,,0.00,meteohub,2013-01-08 08:24:00,
2013-01-08 02:29:00,39.0,30.0,30.03,SSW,200,5.0,14.0,70,0.00,,,0.00,meteohub,2013-01-08 08:29:00,
2013-01-08 02:34:00,38.8,29.8,30.03,SSW,192,3.0,14.0,70,0.00,,,0.00,meteohub,2013-01-08 08:34:00,
2013-01-08 02:39:00,39.0,30.0,30.03,South,186,8.0,14.0,70,0.00,,,0.00,meteohub,2013-01-08 08:39:00,
2013-01-08 02:44:00,39.0,30.4,30.03,SSE,150,4.0,14.0,71,0.00,,,0.00,meteohub,2013-01-08 08:44:00,
2013-01-08 02:49:00,39.0,30.4,30.03,South,173,2.0,14.0,71,0.00,,,0.00,meteohub,2013-01-08 08:49:00,
2013-01-08 02:54:00,39.0,30.4,30.03,SSW,200,5.0,14.0,71,0.00,,,0.00,meteohub,2013-01-08 08:54:00,
2013-01-08 02:59:00,39.0,30.4,30.03,ESE,116,4.0,14.0,71,0.00,,,0.00,meteohub,2013-01-08 08:59:00,
2013-01-08 03:04:00,39.0,30.4,30.03,SSE,149,11.0,13.0,71,0.00,,,0.00,meteohub,2013-01-08 09:04:00,
2013-01-08 03:09:00,38.8,30.2,30.03,South,173,7.0,13.0,71,0.00,,,0.00,meteohub,2013-01-08 09:09:00,
2013-01-08 03:14:00,38.8,30.2,30.03,SSE,157,4.0,13.0,71,0.00,,,0.00,meteohub,2013-01-08 09:14:00,
2013-01-08 03:19:00,38.8,30.2,30.03,South,175,5.0,13.0,71,0.00,,,0.00,meteohub,2013-01-08 09:19:00,
2013-01-08 03:24:00,38.8,30.2,30.03,South,173,4.0,13.0,71,0.00,,,0.00,meteohub,2013-01-08 09:24:00,
2013-01-08 03:29:00,38.8,30.6,30.03,South,177,7.0,13.0,72,0.00,,,0.00,meteohub,2013-01-08 09:29:00,
2013-01-08 03:34:00,38.8,30.6,30.03,South,184,10.0,12.0,72,0.00,,,0.00,meteohub,2013-01-08 09:34:00,
2013-01-08 03:39:00,38.8,30.6,30.03,SW,221,4.0,12.0,72,0.00,,,0.00,meteohub,2013-01-08 09:39:00,
2013-01-08 03:44:00,38.8,30.6,30.02,South,176,7.0,12.0,72,0.00,,,0.00,meteohub,2013-01-08 09:44:00,
2013-01-08 03:49:00,38.8,30.6,30.02,SSE,157,4.0,12.0,72,0.00,,,0.00,meteohub,2013-01-08 09:49:00,
2013-01-08 03:54:00,38.8,30.6,30.02,SSE,166,4.0,12.0,72,0.00,,,0.00,meteohub,2013-01-08 09:54:00,
2013-01-08 03:59:00,38.7,30.7,30.02,SSW,209,5.0,12.0,73,0.00,,,0.00,meteohub,2013-01-08 09:59:00,
2013-01-08 04:04:00,38.8,30.6,30.02,South,176,5.0,12.0,72,0.00,,,0.00,meteohub,2013-01-08 10:04:00,
2013-01-08 04:09:00,38.7,30.4,30.02,South,189,5.0,13.0,72,0.00,,,0.00,meteohub,2013-01-08 10:09:00,
2013-01-08 04:14:00,38.7,30.7,30.01,SSE,148,6.0,13.0,73,0.00,,,0.00,meteohub,2013-01-08 10:14:00,
2013-01-08 04:19:00,38.7,30.7,30.01,South,184,6.0,13.0,73,0.00,,,0.00,meteohub,2013-01-08 10:19:00,
2013-01-08 04:24:00,38.5,30.6,30.01,SW,235,7.0,14.0,73,0.00,,,0.00,meteohub,2013-01-08 10:24:00,
2013-01-08 04:29:00,38.3,30.4,30.01,South,174,5.0,14.0,73,0.00,,,0.00,meteohub,2013-01-08 10:29:00,
2013-01-08 04:34:00,38.1,30.2,30.01,SSE,148,5.0,14.0,73,0.00,,,0.00,meteohub,2013-01-08 10:34:00,
2013-01-08 04:39:00,38.1,30.2,30.01,SSW,193,4.0,14.0,73,0.00,,,0.00,meteohub,2013-01-08 10:39:00,
2013-01-08 04:44:00,38.1,30.6,30.01,West,261,1.0,11.0,74,0.00,,,0.00,meteohub,2013-01-08 10:44:00,
2013-01-08 04:49:00,38.1,30.6,30.01,SW,218,6.0,11.0,74,0.00,,,0.00,meteohub,2013-01-08 10:49:00,
2013-01-08 04:54:00,38.1,30.6,30.01,South,191,3.0,11.0,74,0.00,,,0.00,meteohub,2013-01-08 10:54:00,
2013-01-08 04:59:00,38.1,30.6,30.01,South,174,5.0,9.0,74,0.00,,,0.00,meteohub,2013-01-08 10:59:00,
2013-01-08 05:05:00,38.1,30.6,30.01,South,180,5.0,9.0,74,0.00,,,0.00,meteohub,2013-01-08 11:05:00,
2013-01-08 05:09:00,38.1,30.6,30.01,South,180,6.0,10.0,74,0.00,,,0.00,meteohub,2013-01-08 11:09:00,
2013-01-08 05:15:00,38.3,30.7,30.01,SSE,159,6.0,10.0,74,0.00,,,0.00,meteohub,2013-01-08 11:15:00,
2013-01-08 05:20:00,38.3,30.7,30.01,SW,223,5.0,10.0,74,0.00,,,0.00,meteohub,2013-01-08 11:20:00,
2013-01-08 05:25:00,38.3,30.7,30.01,South,188,5.0,13.0,74,0.00,,,0.00,meteohub,2013-01-08 11:25:00,
2013-01-08 05:30:00,38.1,30.6,30.01,SSE,150,9.0,13.0,74,0.00,,,0.00,meteohub,2013-01-08 11:30:00,
2013-01-08 05:35:00,38.1,30.6,30.01,WSW,238,5.0,12.0,74,0.00,,,0.00,meteohub,2013-01-08 11:35:00,
2013-01-08 05:40:00,38.1,30.6,30.01,SSE,164,4.0,12.0,74,0.00,,,0.00,meteohub,2013-01-08 11:40:00,
2013-01-08 05:45:00,38.1,30.6,30.01,SSW,194,2.0,12.0,74,0.00,,,0.00,meteohub,2013-01-08 11:45:00,
2013-01-08 05:50:00,38.1,30.6,30.01,SSE,148,4.0,12.0,74,0.00,,,0.00,meteohub,2013-01-08 11:50:00,
2013-01-08 05:55:00,37.9,30.4,30.01,SSE,168,3.0,10.0,74,0.00,,,0.00,meteohub,2013-01-08 11:55:00,
2013-01-08 06:00:00,37.9,30.4,30.01,SSE,155,5.0,10.0,74,0.00,,,0.00,meteohub,2013-01-08 12:00:00,
2013-01-08 06:05:00,37.9,30.4,30.01,SE,128,5.0,11.0,74,0.00,,,0.00,meteohub,2013-01-08 12:05:00,
2013-01-08 06:10:00,37.8,30.2,30.00,SSE,148,5.0,11.0,74,0.00,,,0.00,meteohub,2013-01-08 12:10:00,
2013-01-08 06:15:00,37.8,30.6,30.00,SSE,167,5.0,11.0,75,0.00,,,0.00,meteohub,2013-01-08 12:15:00,
2013-01-08 06:20:00,37.6,30.4,29.99,SSE,165,11.0,11.0,75,0.00,,,0.00,meteohub,2013-01-08 12:20:00,
2013-01-08 06:25:00,37.6,30.4,29.99,South,178,4.0,10.0,75,0.00,,,0.00,meteohub,2013-01-08 12:25:00,
2013-01-08 06:30:00,37.6,30.4,30.00,WSW,252,0.0,10.0,75,0.00,,,0.00,meteohub,2013-01-08 12:30:00,
2013-01-08 06:35:00,37.6,30.4,29.99,SSW,196,2.0,11.0,75,0.00,,,0.00,meteohub,2013-01-08 12:35:00,
2013-01-08 06:40:00,37.8,30.6,29.99,SSE,160,5.0,11.0,75,0.00,,,0.00,meteohub,2013-01-08 12:40:00,
2013-01-08 06:45:00,37.8,30.6,29.99,SSW,197,7.0,11.0,75,0.00,,,0.00,meteohub,2013-01-08 12:45:00,
2013-01-08 06:50:00,37.8,30.6,29.99,SSW,198,7.0,15.0,75,0.00,,,0.00,meteohub,2013-01-08 12:50:00,
2013-01-08 06:55:00,37.8,30.2,29.99,WSW,240,5.0,15.0,74,0.00,,,0.00,meteohub,2013-01-08 12:55:00,
2013-01-08 07:00:00,37.8,30.2,30.00,South,177,5.0,15.0,74,0.00,,,0.00,meteohub,2013-01-08 13:00:00,
2013-01-08 07:05:00,37.6,30.0,30.00,SW,226,11.0,15.0,74,0.00,,,0.00,meteohub,2013-01-08 13:05:00,
2013-01-08 07:10:00,37.8,30.2,30.00,South,173,4.0,15.0,74,0.00,,,0.00,meteohub,2013-01-08 13:10:00,
2013-01-08 07:15:00,37.8,30.2,30.00,SSW,205,4.0,18.0,74,0.00,,,0.00,meteohub,2013-01-08 13:15:00,
2013-01-08 07:20:00,37.8,30.2,30.00,SE,138,9.0,18.0,74,0.00,,,0.00,meteohub,2013-01-08 13:20:00,
2013-01-08 07:25:00,37.8,30.2,30.00,South,175,4.0,18.0,74,0.00,,,0.00,meteohub,2013-01-08 13:25:00,
2013-01-08 07:30:00,37.8,29.8,30.00,South,171,7.0,20.0,73,0.00,,,0.00,meteohub,2013-01-08 13:30:00,
2013-01-08 07:35:00,37.6,29.7,30.00,SSW,200,3.0,20.0,73,0.00,,,0.00,meteohub,2013-01-08 13:35:00,
2013-01-08 07:40:00,37.6,29.7,30.00,SW,233,6.0,20.0,73,0.00,,,0.00,meteohub,2013-01-08 13:40:00,
2013-01-08 07:45:00,37.6,29.7,30.00,SW,229,11.0,20.0,73,0.00,,,0.00,meteohub,2013-01-08 13:45:00,
2013-01-08 07:50:00,37.6,29.7,30.00,SSW,194,13.0,14.0,73,0.00,,,0.00,meteohub,2013-01-08 13:50:00,
2013-01-08 07:55:00,37.6,29.7,30.00,SE,134,5.0,14.0,73,0.00,,,0.00,meteohub,2013-01-08 13:55:00,
2013-01-08 08:00:00,37.8,29.8,30.01,SSE,161,7.0,14.0,73,0.00,,,0.00,meteohub,2013-01-08 14:00:00,
2013-01-08 08:05:00,37.8,29.5,30.01,South,180,9.0,15.0,72,0.00,,,0.00,meteohub,2013-01-08 14:05:00,
2013-01-08 08:10:00,37.9,29.7,30.01,SSW,195,9.0,15.0,72,0.00,,,0.00,meteohub,2013-01-08 14:10:00,
2013-01-08 08:15:00,38.1,29.8,30.01,SSW,206,1.0,15.0,72,0.00,,,0.00,meteohub,2013-01-08 14:15:00,
2013-01-08 08:20:00,38.1,29.8,30.01,SW,215,10.0,15.0,72,0.00,,,0.00,meteohub,2013-01-08 14:20:00,
2013-01-08 08:25:00,38.3,29.7,30.01,SSW,212,6.0,15.0,71,0.00,,,0.00,meteohub,2013-01-08 14:25:00,
2013-01-08 08:30:00,38.5,29.8,30.00,SSE,164,6.0,15.0,71,0.00,,,0.00,meteohub,2013-01-08 14:30:00,
2013-01-08 08:35:00,38.8,29.8,30.00,SSW,200,5.0,15.0,70,0.00,,,0.00,meteohub,2013-01-08 14:35:00,
2013-01-08 08:40:00,39.0,30.0,30.00,SE,144,7.0,17.0,70,0.00,,,0.00,meteohub,2013-01-08 14:40:00,
2013-01-08 08:45:00,39.4,30.0,30.00,SW,225,7.0,17.0,69,0.00,,,0.00,meteohub,2013-01-08 14:45:00,
2013-01-08 08:50:00,39.7,30.4,30.00,South,173,6.0,17.0,69,0.00,,,0.00,meteohub,2013-01-08 14:50:00,
2013-01-08 08:55:00,40.3,30.6,30.00,SSW,209,6.0,17.0,68,0.00,,,0.00,meteohub,2013-01-08 14:55:00,
2013-01-08 09:00:00,40.5,30.4,30.00,SSW,207,8.0,15.0,67,0.00,,,0.00,meteohub,2013-01-08 15:00:00,
2013-01-08 09:05:00,40.8,30.4,30.01,WSW,248,8.0,15.0,66,0.00,,,0.00,meteohub,2013-01-08 15:05:00,
2013-01-08 09:10:00,41.0,30.6,30.00,South,171,7.0,17.0,66,0.00,,,0.00,meteohub,2013-01-08 15:10:00,
2013-01-08 09:15:00,41.5,30.7,30.00,South,186,13.0,17.0,65,0.00,,,0.00,meteohub,2013-01-08 15:15:00,
2013-01-08 09:20:00,41.5,30.7,30.00,SW,229,7.0,19.0,65,0.00,,,0.00,meteohub,2013-01-08 15:20:00,
2013-01-08 09:25:00,41.7,30.7,30.00,South,184,12.0,19.0,65,0.00,,,0.00,meteohub,2013-01-08 15:25:00,
2013-01-08 09:30:00,41.7,30.4,30.00,ESE,111,3.0,19.0,64,0.00,,,0.00,meteohub,2013-01-08 15:30:00,
2013-01-08 09:35:00,41.7,30.4,30.00,SSE,152,5.0,18.0,64,0.00,,,0.00,meteohub,2013-01-08 15:35:00,
2013-01-08 09:40:00,41.5,30.7,30.01,SW,218,7.0,18.0,65,0.00,,,0.00,meteohub,2013-01-08 15:40:00,
2013-01-08 09:45:00,41.7,30.7,30.01,South,184,9.0,18.0,65,0.00,,,0.00,meteohub,2013-01-08 15:45:00,
2013-01-08 09:50:00,41.9,30.9,30.01,South,179,11.0,18.0,65,0.00,,,0.00,meteohub,2013-01-08 15:50:00,
2013-01-08 09:55:00,42.3,30.9,30.01,SW,221,2.0,14.0,64,0.00,,,0.00,meteohub,2013-01-08 15:55:00,
2013-01-08 10:00:00,42.8,31.5,30.00,SSE,158,5.0,14.0,64,0.00,,,0.00,meteohub,2013-01-08 16:00:00,
2013-01-08 10:05:00,43.2,31.5,30.01,SSE,158,6.0,18.0,63,0.00,,,0.00,meteohub,2013-01-08 16:05:00,
2013-01-08 10:10:00,43.7,31.5,30.01,South,173,11.0,18.0,62,0.00,,,0.00,meteohub,2013-01-08 16:10:00,
2013-01-08 10:15:00,44.2,31.6,30.01,South,186,9.0,18.0,61,0.00,,,0.00,meteohub,2013-01-08 16:15:00,
2013-01-08 10:20:00,44.4,31.8,30.01,SSW,194,10.0,18.0,61,0.00,,,0.00,meteohub,2013-01-08 16:20:00,
2013-01-08 10:25:00,44.8,31.8,30.02,South,173,13.0,18.0,60,0.00,,,0.00,meteohub,2013-01-08 16:25:00,
2013-01-08 10:30:00,45.0,32.0,30.01,West,273,10.0,18.0,60,0.00,,,0.00,meteohub,2013-01-08 16:30:00,
2013-01-08 10:35:00,45.3,31.8,30.01,SW,224,11.0,15.0,59,0.00,,,0.00,meteohub,2013-01-08 16:35:00,
2013-01-08 10:40:00,45.3,31.8,30.01,WSW,253,4.0,15.0,59,0.00,,,0.00,meteohub,2013-01-08 16:40:00,
2013-01-08 10:45:00,45.7,32.5,30.01,SSE,161,6.0,22.0,60,0.00,,,0.00,meteohub,2013-01-08 16:45:00,
2013-01-08 10:50:00,46.0,32.5,30.01,SSE,159,9.0,22.0,59,0.00,,,0.00,meteohub,2013-01-08 16:50:00,
2013-01-08 10:55:00,46.2,32.7,30.01,SSE,155,7.0,22.0,59,0.00,,,0.00,meteohub,2013-01-08 16:55:00,
2013-01-08 11:00:00,46.6,32.5,30.00,SSW,194,15.0,22.0,58,0.00,,,0.00,meteohub,2013-01-08 17:00:00,
2013-01-08 11:05:00,46.8,32.7,30.00,ESE,120,6.0,18.0,58,0.00,,,0.00,meteohub,2013-01-08 17:05:00,
2013-01-08 11:10:00,46.9,32.9,30.00,SSW,206,11.0,18.0,58,0.00,,,0.00,meteohub,2013-01-08 17:10:00,
2013-01-08 11:15:00,47.1,33.1,30.00,SSE,163,7.0,18.0,58,0.00,,,0.00,meteohub,2013-01-08 17:15:00,
2013-01-08 11:20:00,47.3,32.9,30.00,SSE,165,14.0,18.0,57,0.00,,,0.00,meteohub,2013-01-08 17:20:00,
2013-01-08 11:25:00,47.7,33.3,29.99,SSW,210,6.0,19.0,57,0.00,,,0.00,meteohub,2013-01-08 17:25:00,
2013-01-08 11:30:00,47.8,33.3,29.99,South,188,9.0,19.0,57,0.00,,,0.00,meteohub,2013-01-08 17:30:00,
2013-01-08 11:35:00,48.0,33.1,29.99,WSW,255,4.0,19.0,56,0.00,,,0.00,meteohub,2013-01-08 17:35:00,
2013-01-08 11:40:00,48.4,33.4,29.98,SSE,162,9.0,19.0,56,0.00,,,0.00,meteohub,2013-01-08 17:40:00,
2013-01-08 11:45:00,48.4,33.4,29.98,South,175,8.0,16.0,56,0.00,,,0.00,meteohub,2013-01-08 17:45:00,
2013-01-08 11:50:00,48.4,33.4,29.97,SE,144,4.0,16.0,56,0.00,,,0.00,meteohub,2013-01-08 17:50:00,
2013-01-08 11:55:00,48.6,33.6,29.97,SSE,155,16.0,19.0,56,0.00,,,0.00,meteohub,2013-01-08 17:55:00,
2013-01-08 12:00:00,48.7,33.8,29.96,SSW,211,6.0,19.0,56,0.00,,,0.00,meteohub,2013-01-08 18:00:00,
2013-01-08 12:05:00,49.1,33.6,29.96,South,182,3.0,21.0,55,0.00,,,0.00,meteohub,2013-01-08 18:05:00,
2013-01-08 12:10:00,49.5,34.0,29.96,SSW,202,13.0,21.0,55,0.00,,,0.00,meteohub,2013-01-08 18:10:00,
2013-01-08 12:16:00,49.5,33.4,29.96,SSW,202,10.0,20.0,54,0.00,,,0.00,meteohub,2013-01-08 18:16:00,
2013-01-08 12:21:00,49.5,33.4,29.96,SW,217,7.0,20.0,54,0.00,,,0.00,meteohub,2013-01-08 18:21:00,
2013-01-08 12:26:00,49.8,34.3,29.96,SSE,153,7.0,20.0,55,0.00,,,0.00,meteohub,2013-01-08 18:26:00,
2013-01-08 12:31:00,50.4,34.3,29.95,SSE,167,4.0,18.0,54,0.00,,,0.00,meteohub,2013-01-08 18:31:00,
2013-01-08 12:36:00,50.5,34.0,29.95,SE,146,6.0,18.0,53,0.00,,,0.00,meteohub,2013-01-08 18:36:00,
2013-01-08 12:41:00,51.1,34.5,29.95,SSW,195,6.0,17.0,53,0.00,,,0.00,meteohub,2013-01-08 18:41:00,
2013-01-08 12:46:00,51.3,34.7,29.95,SSW,209,13.0,17.0,53,0.00,,,0.00,meteohub,2013-01-08 18:46:00,
2013-01-08 12:51:00,51.6,34.5,29.95,South,175,5.0,16.0,52,0.00,,,0.00,meteohub,2013-01-08 18:51:00,
2013-01-08 12:56:00,52.2,34.5,29.95,SSW,198,10.0,16.0,51,0.00,,,0.00,meteohub,2013-01-08 18:56:00,
2013-01-08 13:01:00,52.2,34.5,29.95,South,179,6.0,16.0,51,0.00,,,0.00,meteohub,2013-01-08 19:01:00,
2013-01-08 13:06:00,52.3,34.2,29.95,SSW,195,12.0,17.0,50,0.00,,,0.00,meteohub,2013-01-08 19:06:00,
2013-01-08 13:11:00,52.5,34.9,29.95,SSE,167,5.0,17.0,51,0.00,,,0.00,meteohub,2013-01-08 19:11:00,
2013-01-08 13:16:00,52.5,34.3,29.95,SW,224,10.0,18.0,50,0.00,,,0.00,meteohub,2013-01-08 19:16:00,
2013-01-08 13:21:00,52.7,34.5,29.95,SSW,212,6.0,18.0,50,0.00,,,0.00,meteohub,2013-01-08 19:21:00,
2013-01-08 13:26:00,52.9,34.7,29.95,SSE,161,4.0,18.0,50,0.00,,,0.00,meteohub,2013-01-08 19:26:00,
2013-01-08 13:31:00,53.1,34.9,29.95,South,190,13.0,18.0,50,0.00,,,0.00,meteohub,2013-01-08 19:31:00,
2013-01-08 13:36:00,53.1,34.3,29.95,SE,146,5.0,18.0,49,0.00,,,0.00,meteohub,2013-01-08 19:36:00,
2013-01-08 13:41:00,53.2,34.5,29.95,South,173,5.0,18.0,49,0.00,,,0.00,meteohub,2013-01-08 19:41:00,
2013-01-08 13:46:00,53.6,34.9,29.95,SW,231,6.0,18.0,49,0.00,,,0.00,meteohub,2013-01-08 19:46:00,
2013-01-08 13:51:00,54.0,34.7,29.96,South,188,7.0,18.0,48,0.00,,,0.00,meteohub,2013-01-08 19:51:00,
2013-01-08 13:56:00,54.0,34.2,29.96,SSE,160,6.0,18.0,47,0.00,,,0.00,meteohub,2013-01-08 19:56:00,
2013-01-08 14:01:00,53.8,34.0,29.96,SE,132,6.0,18.0,47,0.00,,,0.00,meteohub,2013-01-08 20:01:00,
2013-01-08 14:06:00,53.8,34.0,29.95,South,171,8.0,16.0,47,0.00,,,0.00,meteohub,2013-01-08 20:06:00,
2013-01-08 14:11:00,54.0,34.2,29.95,South,171,6.0,16.0,47,0.00,,,0.00,meteohub,2013-01-08 20:11:00,
2013-01-08 14:16:00,54.3,34.5,29.95,South,173,4.0,16.0,47,0.00,,,0.00,meteohub,2013-01-08 20:16:00,
2013-01-08 14:21:00,54.7,34.3,29.95,SSE,152,5.0,16.0,46,0.00,,,0.00,meteohub,2013-01-08 20:21:00,
2013-01-08 14:26:00,54.9,34.5,29.96,SSE,167,5.0,14.0,46,0.00,,,0.00,meteohub,2013-01-08 20:26:00,
2013-01-08 14:31:00,55.0,34.2,29.95,SW,234,4.0,14.0,45,0.00,,,0.00,meteohub,2013-01-08 20:31:00,
2013-01-08 14:36:00,55.0,34.7,29.96,SSW,193,5.0,15.0,46,0.00,,,0.00,meteohub,2013-01-08 20:36:00,
2013-01-08 14:41:00,55.0,34.2,29.96,SW,224,4.0,15.0,45,0.00,,,0.00,meteohub,2013-01-08 20:41:00,
2013-01-08 14:46:00,55.4,34.9,29.96,SSW,209,8.0,16.0,46,0.00,,,0.00,meteohub,2013-01-08 20:46:00,
2013-01-08 14:51:00,55.6,34.5,29.96,SE,136,3.0,16.0,45,0.00,,,0.00,meteohub,2013-01-08 20:51:00,
2013-01-08 14:56:00,55.6,34.5,29.96,SSW,205,8.0,16.0,45,0.00,,,0.00,meteohub,2013-01-08 20:56:00,
2013-01-08 15:01:00,55.8,34.2,29.96,South,191,12.0,16.0,44,0.00,,,0.00,meteohub,2013-01-08 21:01:00,
2013-01-08 15:06:00,55.6,34.5,29.96,West,259,6.0,17.0,45,0.00,,,0.00,meteohub,2013-01-08 21:06:00,
2013-01-08 15:11:00,55.4,33.8,29.95,SSE,161,7.0,17.0,44,0.00,,,0.00,meteohub,2013-01-08 21:11:00,
2013-01-08 15:16:00,55.4,33.8,29.95,SW,232,7.0,19.0,44,0.00,,,0.00,meteohub,2013-01-08 21:16:00,
2013-01-08 15:21:00,55.4,33.8,29.96,SW,234,11.0,19.0,44,0.00,,,0.00,meteohub,2013-01-08 21:21:00,
2013-01-08 15:26:00,55.2,34.2,29.96,South,187,3.0,19.0,45,0.00,,,0.00,meteohub,2013-01-08 21:26:00,
2013-01-08 15:31:00,55.6,34.0,29.96,SSW,198,10.0,19.0,44,0.00,,,0.00,meteohub,2013-01-08 21:31:00,
2013-01-08 15:36:00,55.8,34.2,29.96,SSW,193,5.0,15.0,44,0.00,,,0.00,meteohub,2013-01-08 21:36:00,
2013-01-08 15:41:00,55.8,34.2,29.96,SSW,208,5.0,15.0,44,0.00,,,0.00,meteohub,2013-01-08 21:41:00,
2013-01-08 15:46:00,55.8,34.2,29.96,South,190,12.0,13.0,44,0.00,,,0.00,meteohub,2013-01-08 21:46:00,
2013-01-08 15:51:00,55.6,34.0,29.96,SW,214,12.0,13.0,44,0.00,,,0.00,meteohub,2013-01-08 21:51:00,
2013-01-08 15:56:00,55.4,33.8,29.96,South,170,7.0,16.0,44,0.00,,,0.00,meteohub,2013-01-08 21:56:00,
2013-01-08 16:01:00,55.4,34.3,29.95,SSW,197,6.0,16.0,45,0.00,,,0.00,meteohub,2013-01-08 22:01:00,
2013-01-08 16:06:00,55.4,34.3,29.95,South,187,6.0,19.0,45,0.00,,,0.00,meteohub,2013-01-08 22:06:00,
2013-01-08 16:11:00,55.2,34.2,29.95,South,185,10.0,19.0,45,0.00,,,0.00,meteohub,2013-01-08 22:11:00,
2013-01-08 16:16:00,55.0,34.7,29.96,South,183,10.0,19.0,46,0.00,,,0.00,meteohub,2013-01-08 22:16:00,
2013-01-08 16:21:00,54.9,34.5,29.96,SW,226,4.0,19.0,46,0.00,,,0.00,meteohub,2013-01-08 22:21:00,
2013-01-08 16:26:00,54.9,34.5,29.96,SW,215,2.0,19.0,46,0.00,,,0.00,meteohub,2013-01-08 22:26:00,
2013-01-08 16:31:00,54.7,34.9,29.96,South,169,4.0,19.0,47,0.00,,,0.00,meteohub,2013-01-08 22:31:00,
2013-01-08 16:36:00,54.5,34.7,29.96,SSW,201,6.0,19.0,47,0.00,,,0.00,meteohub,2013-01-08 22:36:00,
2013-01-08 16:41:00,54.1,34.9,29.96,SSE,165,10.0,19.0,48,0.00,,,0.00,meteohub,2013-01-08 22:41:00,
2013-01-08 16:46:00,53.8,34.5,29.97,South,175,6.0,16.0,48,0.00,,,0.00,meteohub,2013-01-08 22:46:00,
2013-01-08 16:51:00,53.4,34.7,29.97,SSE,167,11.0,16.0,49,0.00,,,0.00,meteohub,2013-01-08 22:51:00,
2013-01-08 16:56:00,53.1,34.3,29.97,SSW,198,7.0,15.0,49,0.00,,,0.00,meteohub,2013-01-08 22:56:00,
2013-01-08 17:01:00,52.9,34.7,29.97,South,170,7.0,15.0,50,0.00,,,0.00,meteohub,2013-01-08 23:01:00,
2013-01-08 17:06:00,52.5,34.3,29.97,South,179,6.0,15.0,50,0.00,,,0.00,meteohub,2013-01-08 23:06:00,
2013-01-08 17:11:00,52.3,34.2,29.97,South,171,9.0,15.0,50,0.00,,,0.00,meteohub,2013-01-08 23:11:00,
2013-01-08 17:16:00,52.2,34.5,29.98,South,181,6.0,12.0,51,0.00,,,0.00,meteohub,2013-01-08 23:16:00,
2013-01-08 17:21:00,52.2,34.5,29.99,SSW,211,4.0,12.0,51,0.00,,,0.00,meteohub,2013-01-08 23:21:00,
2013-01-08 17:26:00,52.0,34.3,29.99,South,180,3.0,12.0,51,0.00,,,0.00,meteohub,2013-01-08 23:26:00,
2013-01-08 17:31:00,51.6,34.5,29.99,SSW,211,6.0,12.0,52,0.00,,,0.00,meteohub,2013-01-08 23:31:00,
2013-01-08 17:36:00,51.4,34.3,30.00,SW,223,9.0,14.0,52,0.00,,,0.00,meteohub,2013-01-08 23:36:00,
2013-01-08 17:41:00,51.4,34.9,30.00,SW,222,5.0,14.0,53,0.00,,,0.00,meteohub,2013-01-08 23:41:00,
2013-01-08 17:46:00,51.3,34.7,30.01,SW,216,4.0,14.0,53,0.00,,,0.00,meteohub,2013-01-08 23:46:00,
2013-01-08 17:51:00,51.1,34.5,30.01,SSE,168,1.0,14.0,53,0.00,,,0.00,meteohub,2013-01-08 23:51:00,
2013-01-08 17:56:00,50.9,34.3,30.01,SSW,210,1.0,10.0,53,0.00,,,0.00,meteohub,2013-01-08 23:56:00,
2013-01-08 18:01:00,50.7,34.7,30.01,South,172,2.0,10.0,54,0.00,,,0.00,meteohub,2013-01-09 00:01:00,
2013-01-08 18:06:00,50.7,34.7,30.01,SSE,162,3.0,10.0,54,0.00,,,0.00,meteohub,2013-01-09 00:06:00,
2013-01-08 18:11:00,50.5,34.5,30.01,SW,217,3.0,10.0,54,0.00,,,0.00,meteohub,2013-01-09 00:11:00,
2013-01-08 18:16:00,50.4,34.9,30.02,South,183,5.0,11.0,55,0.00,,,0.00,meteohub,2013-01-09 00:16:00,
2013-01-08 18:21:00,50.2,34.7,30.02,South,175,2.0,11.0,55,0.00,,,0.00,meteohub,2013-01-09 00:21:00,
2013-01-08 18:26:00,50.2,34.7,30.02,SSW,205,5.0,10.0,55,0.00,,,0.00,meteohub,2013-01-09 00:26:00,
2013-01-08 18:31:00,50.0,34.9,30.02,South,188,3.0,10.0,56,0.00,,,0.00,meteohub,2013-01-09 00:31:00,
2013-01-08 18:36:00,49.8,34.7,30.02,SW,232,6.0,9.0,56,0.00,,,0.00,meteohub,2013-01-09 00:36:00,
2013-01-08 18:41:00,49.6,35.1,30.02,SSW,211,6.0,9.0,57,0.00,,,0.00,meteohub,2013-01-09 00:41:00,
2013-01-08 18:46:00,49.6,35.1,30.02,WSW,237,6.0,10.0,57,0.00,,,0.00,meteohub,2013-01-09 00:46:00,
2013-01-08 18:51:00,49.5,34.9,30.03,SW,227,4.0,10.0,57,0.00,,,0.00,meteohub,2013-01-09 00:51:00,
2013-01-08 18:56:00,49.5,34.9,30.04,SSW,213,7.0,10.0,57,0.00,,,0.00,meteohub,2013-01-09 00:56:00,
2013-01-08 19:01:00,49.3,35.1,30.04,WSW,247,4.0,10.0,58,0.00,,,0.00,meteohub,2013-01-09 01:01:00,
2013-01-08 19:06:00,49.3,35.1,30.04,SW,214,2.0,9.0,58,0.00,,,0.00,meteohub,2013-01-09 01:06:00,
2013-01-08 19:11:00,49.1,34.9,30.04,SW,215,2.0,9.0,58,0.00,,,0.00,meteohub,2013-01-09 01:11:00,
2013-01-08 19:16:00,48.9,34.9,30.05,SSW,211,3.0,6.0,58,0.00,,,0.00,meteohub,2013-01-09 01:16:00,
2013-01-08 19:21:00,48.9,34.9,30.05,SW,221,2.0,6.0,58,0.00,,,0.00,meteohub,2013-01-09 01:21:00,
2013-01-08 19:26:00,48.7,35.1,30.05,SW,219,4.0,7.0,59,0.00,,,0.00,meteohub,2013-01-09 01:26:00,
2013-01-08 19:31:00,48.6,34.9,30.05,South,180,1.0,7.0,59,0.00,,,0.00,meteohub,2013-01-09 01:31:00,
2013-01-08 19:36:00,48.4,34.7,30.05,SW,224,3.0,9.0,59,0.00,,,0.00,meteohub,2013-01-09 01:36:00,
2013-01-08 19:41:00,48.2,34.9,30.04,South,173,4.0,9.0,60,0.00,,,0.00,meteohub,2013-01-09 01:41:00,
2013-01-08 19:46:00,48.0,34.9,30.04,SSE,163,1.0,10.0,60,0.00,,,0.00,meteohub,2013-01-09 01:46:00,
2013-01-08 19:51:00,47.8,34.7,30.04,SSW,211,1.0,10.0,60,0.00,,,0.00,meteohub,2013-01-09 01:51:00,
2013-01-08 19:56:00,47.7,34.9,30.04,SSW,193,1.0,5.0,61,0.00,,,0.00,meteohub,2013-01-09 01:56:00,
2013-01-08 20:01:00,47.7,34.9,30.06,SW,219,2.0,5.0,61,0.00,,,0.00,meteohub,2013-01-09 02:01:00,
2013-01-08 20:06:00,47.5,34.7,30.06,SW,222,2.0,6.0,61,0.00,,,0.00,meteohub,2013-01-09 02:06:00,
2013-01-08 20:11:00,47.5,34.7,30.06,SW,223,3.0,6.0,61,0.00,,,0.00,meteohub,2013-01-09 02:11:00,
2013-01-08 20:16:00,47.3,34.9,30.06,SW,218,2.0,6.0,62,0.00,,,0.00,meteohub,2013-01-09 02:16:00,
2013-01-08 20:21:00,47.1,34.7,30.06,WSW,238,2.0,6.0,62,0.00,,,0.00,meteohub,2013-01-09 02:21:00,
2013-01-08 20:26:00,46.9,34.5,30.06,SSW,193,2.0,5.0,62,0.00,,,0.00,meteohub,2013-01-09 02:26:00,
2013-01-08 20:31:00,46.8,34.9,30.07,WSW,237,1.0,5.0,63,0.00,,,0.00,meteohub,2013-01-09 02:31:00,
2013-01-08 20:36:00,46.6,34.7,30.07,WSW,246,2.0,6.0,63,0.00,,,0.00,meteohub,2013-01-09 02:36:00,
2013-01-08 20:41:00,46.4,34.5,30.08,South,186,0.0,6.0,63,0.00,,,0.00,meteohub,2013-01-09 02:41:00,
2013-01-08 20:46:00,46.2,34.7,30.08,SSW,213,2.0,6.0,64,0.00,,,0.00,meteohub,2013-01-09 02:46:00,
2013-01-08 20:51:00,46.0,34.5,30.08,SSW,202,3.0,6.0,64,0.00,,,0.00,meteohub,2013-01-09 02:51:00,
2013-01-08 20:56:00,46.0,34.5,30.08,SSW,200,3.0,6.0,64,0.00,,,0.00,meteohub,2013-01-09 02:56:00,
2013-01-08 21:01:00,45.9,34.3,30.08,SSW,209,4.0,6.0,64,0.00,,,0.00,meteohub,2013-01-09 03:01:00,
2013-01-08 21:06:00,45.9,34.3,30.09,WSW,245,3.0,6.0,64,0.00,,,0.00,meteohub,2013-01-09 03:06:00,
2013-01-08 21:11:00,45.7,34.5,30.09,WSW,244,0.0,6.0,65,0.00,,,0.00,meteohub,2013-01-09 03:11:00,
2013-01-08 21:16:00,45.5,34.3,30.09,WNW,286,2.0,6.0,65,0.00,,,0.00,meteohub,2013-01-09 03:16:00,
2013-01-08 21:21:00,45.3,34.3,30.10,West,268,5.0,6.0,65,0.00,,,0.00,meteohub,2013-01-09 03:21:00,
2013-01-08 21:26:00,45.1,34.2,30.11,WNW,288,2.0,5.0,65,0.00,,,0.00,meteohub,2013-01-09 03:26:00,
2013-01-08 21:31:00,45.0,34.3,30.11,WNW,292,1.0,5.0,66,0.00,,,0.00,meteohub,2013-01-09 03:31:00,
2013-01-08 21:36:00,45.0,34.3,30.12,West,277,3.0,5.0,66,0.00,,,0.00,meteohub,2013-01-09 03:36:00,
2013-01-08 21:41:00,45.0,34.0,30.12,WSW,255,0.0,5.0,65,0.00,,,0.00,meteohub,2013-01-09 03:41:00,
2013-01-08 21:46:00,44.8,33.8,30.12,WSW,255,2.0,8.0,65,0.00,,,0.00,meteohub,2013-01-09 03:46:00,
2013-01-08 21:51:00,44.4,33.4,30.11,WNW,294,2.0,8.0,65,0.00,,,0.00,meteohub,2013-01-09 03:51:00,
2013-01-08 21:57:00,44.2,33.3,30.12,West,276,4.0,8.0,65,0.00,,,0.00,meteohub,2013-01-09 03:57:00,
2013-01-08 22:02:00,44.1,33.4,30.13,West,281,1.0,8.0,66,0.00,,,0.00,meteohub,2013-01-09 04:02:00,
2013-01-08 22:07:00,43.9,33.3,30.13,SW,236,2.0,6.0,66,0.00,,,0.00,meteohub,2013-01-09 04:07:00,
2013-01-08 22:12:00,43.5,32.9,30.13,SW,231,2.0,6.0,66,0.00,,,0.00,meteohub,2013-01-09 04:12:00,
2013-01-08 22:17:00,43.3,33.1,30.12,SW,229,0.0,5.0,67,0.00,,,0.00,meteohub,2013-01-09 04:17:00,
2013-01-08 22:22:00,43.3,33.1,30.13,WSW,251,2.0,5.0,67,0.00,,,0.00,meteohub,2013-01-09 04:22:00,
2013-01-08 22:27:00,43.2,32.9,30.12,SW,228,0.0,3.0,67,0.00,,,0.00,meteohub,2013-01-09 04:27:00,
2013-01-08 22:32:00,43.0,32.7,30.12,SW,225,1.0,3.0,67,0.00,,,0.00,meteohub,2013-01-09 04:32:00,
2013-01-08 22:37:00,42.6,32.4,30.13,SW,225,0.0,3.0,67,0.00,,,0.00,meteohub,2013-01-09 04:37:00,
2013-01-08 22:42:00,42.4,32.7,30.14,SW,215,1.0,3.0,68,0.00,,,0.00,meteohub,2013-01-09 04:42:00,
2013-01-08 22:47:00,42.3,32.5,30.14,SW,216,0.0,3.0,68,0.00,,,0.00,meteohub,2013-01-09 04:47:00,
2013-01-08 22:52:00,42.1,32.4,30.14,SW,225,1.0,3.0,68,0.00,,,0.00,meteohub,2013-01-09 04:52:00,
2013-01-08 22:57:00,41.7,32.0,30.14,West,267,1.0,4.0,68,0.00,,,0.00,meteohub,2013-01-09 04:57:00,
2013-01-08 23:00:00,41.7,32.4,30.14,WNW,283,0.0,4.0,69,0.00,,,0.00,meteohub,2013-01-09 05:00:00,
2013-01-08 23:04:00,41.5,32.2,30.14,West,261,1.0,4.0,69,0.00,,,0.00,meteohub,2013-01-09 05:04:00,
2013-01-08 23:09:00,41.5,32.2,30.14,West,260,0.0,4.0,69,0.00,,,0.00,meteohub,2013-01-09 05:09:00,
2013-01-08 23:14:00,41.4,32.0,30.14,WSW,243,2.0,3.0,69,0.00,,,0.00,meteohub,2013-01-09 05:14:00,
2013-01-08 23:19:00,41.2,31.8,30.15,SW,234,2.0,3.0,69,0.00,,,0.00,meteohub,2013-01-09 05:19:00,
2013-01-08 23:24:00,41.0,31.6,30.17,WNW,292,1.0,3.0,69,0.00,,,0.00,meteohub,2013-01-09 05:24:00,
2013-01-08 23:29:00,40.6,31.6,30.17,WNW,290,2.0,4.0,70,0.00,,,0.00,meteohub,2013-01-09 05:29:00,
2013-01-08 23:34:00,40.5,31.5,30.17,West,279,0.0,4.0,70,0.00,,,0.00,meteohub,2013-01-09 05:34:00,
2013-01-08 23:39:00,40.3,31.3,30.18,West,275,1.0,4.0,70,0.00,,,0.00,meteohub,2013-01-09 05:39:00,
2013-01-08 23:44:00,39.9,31.3,30.19,WSW,243,2.0,4.0,71,0.00,,,0.00,meteohub,2013-01-09 05:44:00,
2013-01-08 23:49:00,39.7,31.1,30.19,West,277,0.0,3.0,71,0.00,,,0.00,meteohub,2013-01-09 05:49:00,
2013-01-08 23:54:00,39.7,31.1,30.19,West,259,2.0,4.0,71,0.00,,,0.00,meteohub,2013-01-09 05:54:00,
2013-01-08 23:59:00,39.7,31.1,30.20,WSW,257,4.0,4.0,71,0.00,,,0.00,meteohub,2013-01-09 05:59:00,